Location: *
(46.1833°N, 22.7667°E)
Time: 06:19:31
(UTC+00:00)

SJ-6B - Pass Details

Date: 17 September 2019
Orbit: 509 x 583 km, 97.6° (Epoch: 19 October)

Event Time Altitude Azimuth Distance (km) Brightness Sun altitude
Exits shadow 18:37:22 13° 193° (SSW) 1,722 5.2 -20.8°
Maximum altitude 18:40:49 41° 262° (W) 847 4.1 -21.3°
Drops below altitude 10° 18:44:44 10° 333° (NNW) 1,897 6.3 -21.9°
Sets 18:46:59 0° 341° (NNW) 2,792 7.1 -22.2°
